Home   Weather   Sunrise   Past weeks

Flag for USA Past Weather in Sunrise, Florida, USA — Yesterday and Last 2 Weeks

Now
73 °F

Sunny.


Feels Like: 77 °F
Forecast: 57 / 77 °F
Wind: 14 mph from West

Location: Fort Lauderdale Executive Airport

Current Time: Jan 24, 2017 at 12:46:10 pm

Latest Report: Jan 24, 2017 at 11:53 am


Visibility: 10 mi

Pressure: 29.93 "Hg

Humidity: 44%

Dew Point: 50 °F

Location of SunriseLocation

Past Weather in Sunrise — Graph

°F

Sunrise Temperature Yesterday

Maximum temperature yesterday: 79 °F (at 12:53 am)
Minimum temperature yesterday: 65 °F (at 11:53 pm)
Average temperature yesterday: 72 °F

High & Low Weather Summary for the Past Weeks

 TemperatureHumidityPressure
High86 °F (Jan 22, 2:53 pm)93% (Jan 19, 7:53 am)30.51 "Hg (Jan 19, 7:53 am)
Low61 °F (Jan 24, 6:53 am)36% (Jan 10, 10:53 am)29.51 "Hg (Jan 23, 3:05 am)
Average73 °F64%30.12 "Hg
* Reported Jan 9 10:53 am — Jan 24 10:53 am, Sunrise, Weather by CustomWeather, © 2017

Note: Actual official high and low records may vary slightly from our data, if they occured in-between our weather recording intervals... More about our weather records

Advertising

Sunrise Weather History for the Previous 24 Hours

Scroll right to see more
 ConditionsComfort  
Time TempWeatherWind HumidityBarometerVisibility
10:53 am
Tue, Jan 24
72 °FPassing clouds.15 mph49%29.93 "Hg10 mi
9:53 am68 °FSunny.13 mph61%29.93 "Hg10 mi
8:53 am66 °FSunny.12 mph68%29.91 "Hg10 mi
7:53 am62 °FSunny.8 mph78%29.89 "Hg10 mi
6:53 am61 °FClear.8 mph81%29.87 "Hg10 mi
5:53 am62 °FClear.7 mph78%29.85 "Hg10 mi
4:53 am62 °FClear.10 mph78%29.83 "Hg10 mi
3:53 am62 °FClear.9 mph78%29.82 "Hg10 mi
2:53 am63 °FClear.8 mph75%29.80 "Hg10 mi
1:53 am63 °FClear.9 mph75%29.80 "Hg10 mi
12:53 am64 °FClear.8 mph75%29.79 "Hg10 mi
11:53 pm
Mon, Jan 23
65 °FClear.13 mph73%29.78 "Hg10 mi
10:53 pm66 °FClear.15 mph73%29.76 "Hg10 mi
9:53 pm66 °FPassing clouds.16 mph73%29.74 "Hg10 mi
8:53 pm67 °FClear.14 mph71%29.72 "Hg10 mi
7:53 pm67 °FClear.17 mph73%29.70 "Hg10 mi
6:53 pm67 °FClear.15 mph71%29.67 "Hg10 mi
5:53 pm70 °FPassing clouds.13 mph64%29.65 "Hg10 mi
4:53 pm71 °FBroken clouds.22 mph63%29.63 "Hg10 mi
3:53 pm74 °FLight rain. Broken clouds.21 mph53%29.60 "Hg10 mi
2:53 pm74 °FBroken clouds.28 mph52%29.60 "Hg10 mi
1:53 pm77 °FBroken clouds.23 mph44%29.59 "Hg10 mi
12:53 pm76 °FBroken clouds.25 mph50%29.61 "Hg10 mi
Weather by CustomWeather, © 2017

See weather overviewHow to use our weather pages